Location: �perlecques
(50.8057°N, 2.1521°E)
Time: 21:08:35
(UTC+00:00)

Oscar 11 - Pass Details

Date: 30 September 2021
Orbit: 612 x 625 km, 97.6° (Epoch: 25 October)

Event Time Altitude Azimuth Distance (km) Brightness Sun altitude
Rises 04:15:24 0° 28° (NNE) 2,892 11.2 -15.7°
Reaches altitude 10° 04:18:25 10° 51° (NE) 1,981 10.7 -15.2°
Maximum altitude 04:21:01 16° 88° (E) 1,641 10.4 -14.8°
Drops below altitude 10° 04:23:36 10° 126° (SE) 1,973 10.2 -14.4°
Sets 04:26:35 0° 149° (SSE) 2,873 10.7 -14.0°
